[[{"header":{"parameterUnit":"m.s-1","parameterCategory":1,"la1":30.2991,"la2":30.254,"lo1":-89.0895,"lo2":-89.0444,"dy":0.0017,"dx":0.0017,"nx":28,"ny":28,"refTime":"2023-10-25T09:00:00:Z","depth":0,"parameterNumber":2,"parameterNumberName":"U-component_of_WINDS"},"data":[0,0,0,0,0,0,0,0,0,0,0,0,0,0,0,0,0,0,0,0,0,0,0,0,0,0,0,0,0,0,0,0,0,0,0,0,0,0,0,0,0,0,0,0,0,0,0,0,0,0,0,0,0,0,0,0,0,0,-6.6093,-6.6094,0,-6.6215,-6.6216,-6.6217,-6.614,-6.6136,-6.6132,-6.6129,-6.6249,-6.6255,-6.6262,0,0,0,0,0,0,0,0,0,0,0,0,0,-6.5791,-6.5797,-6.6093,-6.6094,-6.6096,-6.6214,-6.6216,-6.6218,-6.614,-6.6136,-6.6132,-6.6127,-6.6247,-6.6255,-6.6262,0,0,0,0,0,0,0,0,0,0,0,0,0,-6.5918,-6.5799,-6.6092,-6.6072,-6.6071,-6.6214,-6.6216,-6.6218,-6.6141,-6.6136,-6.613,-6.6125,-6.6244,-6.6254,-6.6263,-6.6432,0,0,-6.6293,-6.6298,0,0,0,0,0,0,0,0,-6.5911,-6.5929,-6.6073,-6.6073,-6.6073,-6.6157,-6.6153,-6.629,-6.6143,-6.6114,-6.6129,-6.6123,-6.6222,-6.6234,-6.6268,-6.6438,-6.6443,-6.6294,-6.63,-6.6305,-6.6307,0,0,0,0,0,0,0,-6.5902,-6.5924,-6.6141,-6.6075,-6.6075,-6.6055,-6.6068,-6.6179,-6.6197,-6.6116,-6.6111,-6.6127,-6.6221,-6.6259,-6.627,-6.6445,-6.6294,-6.6303,-6.6309,-6.6313,-6.676,-6.6766,0,0,0,0,0,0,-6.5896,-6.5917,-6.6137,-6.6144,-6.5977,-6.6065,-6.6079,-6.6135,-6.6196,-6.62,-6.6131,-6.6123,-6.6245,-6.6259,-6.6274,-6.6475,-6.6304,-6.6314,-6.6319,-6.6754,-6.6762,-6.6768,0,0,0,0,0,0,-6.589,-6.5916,-6.6132,-6.6029,-6.6055,-6.6076,-6.614,-6.614,-6.6178,-6.6207,-6.6209,-6.6167,-6.6241,-6.626,-6.6394,-6.6478,-6.6318,-6.6327,-6.6747,-6.6757,-6.6765,-6.6879,0,0,0,0,0,0,-6.5881,-6.5914,-6.5979,-6.6031,-6.6061,-6.6251,-6.6145,-6.6147,-6.6196,-6.6185,-6.6241,-6.6245,-6.6238,-6.638,-6.6404,-6.6489,-6.6335,-6.674,-6.6751,-6.6762,-6.6868,-6.6891,-6.6911,0,0,0,0,0,-6.5871,-6.6005,-6.5983,-6.6009,-6.6143,-6.6256,-6.6272,-6.6264,-6.6203,-6.6267,-6.6287,-6.6243,-6.6467,-6.6394,-6.6421,-6.651,-6.6734,-6.6748,-6.6761,-6.6858,-6.6887,-6.6911,0,0,0,0,0,0,-6.5959,-6.6011,-6.5987,-6.6142,-6.6196,-6.6242,-6.6323,-6.6294,-6.6364,-6.6351,-6.6336,-6.6349,-6.6489,-6.6513,-6.6432,-6.6677,-6.6591,-6.661,-6.6656,-6.6683,-6.6704,-6.6693,-6.6343,0,0,0,0,0,-6.5997,-6.6086,-6.6126,-6.626,-6.6288,-6.6302,-6.6351,-6.634,-6.6393,-6.6415,-6.6444,-6.6496,-6.6578,-6.6632,-6.6709,-6.6873,-6.6883,-6.6948,-6.6969,-6.6987,-6.7002,-6.7091,-6.712,-6.6812,-6.6812,-6.6812,0,0,-6.6075,-6.6115,-6.6171,-6.6279,-6.6318,-6.641,-6.6321,-6.6421,-6.6488,-6.6429,-6.6557,-6.6581,-6.6639,-6.6789,-6.6856,-6.6813,-6.7091,-6.7004,-6.7018,-6.7024,-6.7108,-6.7137,-6.7163,-6.6822,-6.682,-6.6818,0,0,-6.6264,-6.6304,-6.6419,-6.6463,-6.6525,-6.6534,-6.6562,-6.6615,-6.6629,-6.6758,-6.6717,-6.6797,-6.6938,-6.6982,-6.7022,-6.7233,-6.7195,-6.7259,-6.7369,-6.7455,-6.748,-6.7501,-6.7575,-6.7601,-6.7275,-6.7275,-6.7276,0,-6.6352,-6.6489,-6.6482,-6.6586,-6.6634,-6.659,-6.6706,-6.6748,-6.6832,-6.6866,-6.6818,-6.6996,-6.7032,-6.7191,-6.7243,-6.7278,-6.7309,-6.725,-6.7477,-6.7498,-6.7518,-6.7588,-6.7616,-6.7283,-6.7282,-6.7281,-6.728,0,-6.6595,-6.6691,-6.6777,-6.6862,-6.692,-6.703,-6.7039,-6.7099,-6.7085,-6.7099,-6.7232,-6.7274,-6.7359,-6.7397,-6.7383,-6.7555,-6.7527,-6.7479,-6.739,-6.7555,-6.762,-6.7647,-6.7293,-6.729,-6.7288,-6.7286,0,0,-6.6837,-6.6921,-6.6952,-6.699,-6.7058,-6.7132,-6.7241,-6.7327,-6.7378,-6.7439,-6.7528,-6.7652,-6.7609,-6.7655,-6.7647,-6.7723,-6.7886,-6.7665,-6.7666,-6.7703,-6.8078,-6.8111,-6.8142,-6.7864,-6.7869,-6.7873,-6.8072,0,-6.7028,-6.7219,-6.7217,-6.7393,-6.7482,-6.7443,-6.7538,-6.7589,-6.7607,-6.7684,-6.7703,-6.779,-6.7727,-6.7755,-6.7829,-6.7851,-6.7961,-6.7837,-6.7945,-6.7949,-6.7928,-6.8177,-6.8212,-6.8397,-6.8098,-6.8102,-6.8105,0,-6.7275,-6.7347,-6.7533,-6.759,-6.7627,-6.7712,-6.7791,-6.7867,-6.7925,-6.7933,-6.7987,-6.7967,-6.8077,-6.799,-6.8141,-6.8057,-6.8102,-6.812,-6.8127,-6.8133,-6.8034,-6.8187,-6.8456,-6.8483,-6.8146,-6.8143,-6.814,0,-6.7431,-6.7575,-6.7704,-6.7739,-6.7809,-6.787,-6.7902,-6.7956,-6.8008,-6.8078,-6.8112,-6.8194,-6.8237,-6.8301,-6.8304,-6.824,-6.8456,-6.8369,-6.8464,-6.8464,-6.8507,-6.8504,-6.8784,-6.8542,-6.8542,-6.8541,-6.8541,0,-6.7643,-6.7757,-6.7775,-6.7854,-6.7982,-6.798,-6.8106,-6.8132,-6.8182,-6.8265,-6.8237,-6.8316,-6.8317,-6.8397,-6.84,-6.8525,-6.8545,-6.8553,-6.8552,-6.8554,-6.8553,-6.858,-6.8566,-6.8549,-6.8547,-6.8546,-6.8544,0,-6.7836,-6.7853,-6.7991,-6.8049,-6.8066,-6.8157,-6.8206,-6.8281,-6.8298,-6.8404,-6.8429,-6.8455,-6.8549,-6.856,-6.8668,-6.867,-6.882,-6.8806,-6.88,-6.8797,-6.889,-6.888,-6.9195,-6.9236,-6.897,-6.8973,-6.8975,0,-6.7968,-6.8055,-6.8123,-6.8178,-6.8214,-6.8303,-6.8357,-6.8361,-6.8418,-6.8494,-6.856,-6.8652,-6.8724,-6.8876,-6.8904,-6.8987,-6.8974,-6.9079,-6.8985,-6.8985,-6.8973,-6.8966,-6.8974,-6.9095,-6.9098,-6.91,-6.9102,0,-6.82,-6.8205,-6.8285,-6.837,-6.8437,-6.8503,-6.8565,-6.8611,-6.8622,-6.8689,-6.8785,-6.8842,-6.8955,-6.9046,-6.9129,-6.916,-6.9133,-6.9133,-6.9158,-6.9159,-6.9151,-6.9155,-6.8846,-6.9124,-6.9122,-6.912,-6.9119,-6.9118,-6.8364,-6.8441,-6.8501,-6.8592,-6.8641,-6.87,-6.8774,-6.8803,-6.8884,-6.8976,-6.8974,-6.908,-6.9139,-6.9248,-6.9287,-6.9369,-6.9334,-6.9372,-6.9381,-6.939,-6.9398,-6.9142,-6.9385,-6.9384,-6.9384,-6.9383,-6.9383,0,-6.8593,-6.8631,-6.8715,-6.8805,-6.8877,-6.8849,-6.8918,-6.8979,-6.9073,-6.9132,-6.9205,-6.9317,-6.9406,-6.9443,-6.953,-6.959,-6.9579,-6.9612,-6.9606,-6.9614,-6.9426,-6.9393,-6.9619,-6.9619,-6.9619,-6.9619,-6.9619,-6.9619,-6.872,-6.8848,-6.8861,-6.9013,-6.905,-6.9155,-6.9197,-6.9252,-6.9298,-6.9425,-6.95,-6.9525,-6.9575,-6.9666,-6.9746,-6.9755,-6.9787,-6.9825,-6.9828,-6.9651,-6.9627,-6.9604,-6.9573,-6.9833,-6.9833,-7.0009,-7.001,-7.0011]},{"header":{"parameterUnit":"m.s-1","parameterCategory":1,"la1":30.2991,"la2":30.254,"lo1":-89.0895,"lo2":-89.0444,"dy":0.0017,"dx":0.0017,"nx":28,"ny":28,"refTime":"2023-10-25T09:00:00:Z","depth":0,"parameterNumber":3,"parameterNumberName":"V-component_of_WINDS"},"data":[0,0,0,0,0,0,0,0,0,0,0,0,0,0,0,0,0,0,0,0,0,0,0,0,0,0,0,0,0,0,0,0,0,0,0,0,0,0,0,0,0,0,0,0,0,0,0,0,0,0,0,0,0,0,0,0,0,0,2.036,2.0361,0,2.0422,2.0423,2.0424,2.0448,2.0448,2.0448,2.0447,2.0506,2.0508,2.0509,0,0,0,0,0,0,0,0,0,0,0,0,0,2.026,2.0262,2.036,2.0361,2.0362,2.0422,2.0423,2.0424,2.0448,2.0448,2.0447,2.0447,2.0505,2.0507,2.051,0,0,0,0,0,0,0,0,0,0,0,0,0,2.0311,2.0263,2.036,2.0381,2.0384,2.0422,2.0423,2.0424,2.0448,2.0448,2.0447,2.0447,2.0505,2.0507,2.051,2.053,0,0,2.0518,2.0519,0,0,0,0,0,0,0,0,2.0308,2.0315,2.0377,2.038,2.0383,2.0427,2.0409,2.046,2.0448,2.0423,2.0447,2.0447,2.048,2.0484,2.0496,2.0533,2.0536,2.0518,2.0519,2.0521,2.0521,0,0,0,0,0,0,0,2.0305,2.0312,2.0385,2.0378,2.0382,2.0387,2.0394,2.0419,2.0452,2.0425,2.0427,2.0435,2.0481,2.0494,2.0498,2.0536,2.0518,2.052,2.0522,2.0523,2.0596,2.0596,0,0,0,0,0,0,2.0298,2.0309,2.0383,2.0387,2.0344,2.0389,2.0397,2.0413,2.0452,2.0458,2.0435,2.0436,2.0489,2.0495,2.05,2.0528,2.052,2.0523,2.0524,2.0595,2.0596,2.0596,0,0,0,0,0,0,2.0296,2.0304,2.038,2.0348,2.0359,2.0391,2.0409,2.0414,2.0427,2.0459,2.0464,2.0442,2.049,2.0496,2.0524,2.053,2.0524,2.0526,2.0595,2.0596,2.0596,2.0584,0,0,0,0,0,0,2.0293,2.0303,2.0312,2.0349,2.036,2.0403,2.041,2.0416,2.0432,2.0434,2.0467,2.0472,2.049,2.052,2.0526,2.0534,2.0528,2.0594,2.0595,2.0596,2.0583,2.0584,2.0584,0,0,0,0,0,2.0289,2.0304,2.0312,2.0321,2.0372,2.0404,2.041,2.0432,2.0433,2.0441,2.0462,2.0471,2.0529,2.0522,2.053,2.0538,2.0594,2.0595,2.0596,2.0583,2.0584,2.0584,0,0,0,0,0,0,2.0265,2.0309,2.0318,2.0346,2.0371,2.0408,2.0419,2.0431,2.0455,2.0455,2.0479,2.0486,2.0512,2.0528,2.052,2.0562,2.0562,2.0565,2.055,2.0551,2.0551,2.0546,2.053,0,0,0,0,0,2.0263,2.0287,2.0324,2.0344,2.0357,2.0386,2.04,2.0415,2.0442,2.0452,2.0475,2.0499,2.0523,2.0538,2.0561,2.0586,2.0594,2.0596,2.0596,2.0596,2.0598,2.0614,2.0616,2.0599,2.0599,2.0599,0,0,2.0258,2.0286,2.0299,2.034,2.0361,2.0385,2.0394,2.0418,2.0436,2.0455,2.0483,2.0501,2.0529,2.0556,2.0569,2.057,2.0605,2.0598,2.0597,2.0599,2.0616,2.0617,2.0618,2.06,2.06,2.06,0,0,2.0263,2.0286,2.0307,2.0329,2.0362,2.0382,2.0387,2.0423,2.0436,2.0465,2.0481,2.0502,2.0542,2.0562,2.0578,2.0594,2.0604,2.0601,2.0601,2.0617,2.0619,2.062,2.0627,2.0629,2.0603,2.0603,2.0603,0,2.0252,2.029,2.0315,2.034,2.0358,2.0379,2.0401,2.042,2.0459,2.047,2.0472,2.0525,2.0545,2.0579,2.0583,2.0595,2.0601,2.0597,2.0617,2.0618,2.062,2.0626,2.0629,2.0602,2.0602,2.0602,2.0602,0,2.0276,2.0302,2.0315,2.0355,2.0374,2.0397,2.0425,2.0442,2.0456,2.0476,2.0506,2.0532,2.0563,2.0572,2.0584,2.0607,2.0607,2.0612,2.0613,2.0621,2.0627,2.063,2.0601,2.0602,2.0602,2.0602,0,0,2.0264,2.0321,2.0325,2.0344,2.0384,2.0404,2.0428,2.0461,2.0475,2.0501,2.0522,2.0558,2.0564,2.0582,2.0597,2.0611,2.0624,2.0615,2.0616,2.0616,2.0652,2.0648,2.0651,2.0631,2.0632,2.0632,2.065,0,2.0274,2.032,2.0345,2.038,2.0405,2.0428,2.0449,2.0475,2.0495,2.0519,2.054,2.0565,2.0571,2.0582,2.0597,2.0619,2.0632,2.0618,2.065,2.0651,2.0642,2.0654,2.0649,2.0665,2.0653,2.0653,2.0654,0,2.0291,2.0321,2.0359,2.0399,2.041,2.0429,2.0462,2.0484,2.0515,2.0529,2.0551,2.0567,2.0593,2.0593,2.063,2.0621,2.0636,2.0649,2.065,2.0653,2.0652,2.0658,2.067,2.0673,2.0658,2.0658,2.0657,0,2.028,2.0329,2.0359,2.0374,2.0421,2.0435,2.0454,2.0486,2.0504,2.0533,2.0545,2.0575,2.0592,2.0615,2.0639,2.0636,2.0674,2.0675,2.0685,2.0685,2.0691,2.069,2.0706,2.0701,2.0701,2.0701,2.0701,0,2.0288,2.0311,2.0355,2.0373,2.0399,2.0429,2.0454,2.0475,2.0503,2.0526,2.0547,2.0567,2.0598,2.0622,2.0641,2.067,2.0676,2.0688,2.0692,2.0686,2.0685,2.0696,2.0695,2.0701,2.0701,2.0701,2.0701,0,2.0279,2.0309,2.0344,2.0387,2.0399,2.0416,2.0453,2.0472,2.0494,2.0523,2.0531,2.0565,2.0595,2.0622,2.0661,2.0674,2.0703,2.0708,2.0693,2.0695,2.0704,2.0703,2.0727,2.0732,2.0723,2.0724,2.0724,0,2.0282,2.0301,2.0347,2.0365,2.0386,2.0414,2.0434,2.0464,2.0484,2.0523,2.0537,2.0569,2.0597,2.0644,2.0671,2.0702,2.0708,2.0715,2.0713,2.0707,2.0709,2.0708,2.071,2.0714,2.0714,2.0714,2.0714,0,2.0285,2.03,2.0329,2.0365,2.0389,2.0418,2.0447,2.046,2.0496,2.0517,2.055,2.0571,2.0613,2.0645,2.0679,2.0699,2.0712,2.0715,2.0719,2.0713,2.0703,2.0709,2.0693,2.0714,2.0714,2.0714,2.0714,2.0714,2.0283,2.0301,2.0338,2.0371,2.0397,2.0424,2.0445,2.0471,2.05,2.0537,2.0553,2.0587,2.0619,2.0667,2.0687,2.0713,2.0716,2.0721,2.0723,2.0723,2.0723,2.07,2.0719,2.072,2.072,2.072,2.072,0,2.0287,2.0313,2.0343,2.0385,2.0411,2.0425,2.0458,2.0479,2.0509,2.0539,2.0567,2.0605,2.0637,2.0669,2.0702,2.0717,2.0724,2.0725,2.0724,2.0728,2.0718,2.0712,2.0718,2.0718,2.0718,2.0718,2.0718,2.0718,2.0293,2.0326,2.0346,2.0392,2.0417,2.0452,2.047,2.0496,2.0521,2.0564,2.0591,2.0613,2.0644,2.068,2.071,2.0719,2.073,2.0729,2.0739,2.0729,2.0729,2.0728,2.0722,2.0731,2.0731,2.0747,2.0747,2.0747]}]]